Location: Boiro
(42.6475°N, 8.8834°W)
Time: 12:53:09
(UTC+01:00)

Altair - Pass Details

Date: 09 December 2021
Orbit: 1501 x 1683 km, 47.2° (Epoch: 21 January)

Event Time Altitude Azimuth Distance (km) Brightness Sun altitude
Rises 22:27:45 0° 295° (WNW) 4,676 10.7 -47.9°
Reaches altitude 10° 22:31:01 10° 289° (WNW) 3,676 10.0 -48.5°
Enters shadow 22:36:22 33° 262° (W) 2,334 8.6 -49.4°
